Paso Robles, CA

2:13 AM PDT on May 26, 2017 (GMT -0700)
Paso Robles Municipal

Weather History for KPRB - July, 2013

Change the Weather History Date:

Monday, July 1, 2013

  Actual Average Record
Temperature  
Mean Temperature 85 °F 72 °F  
Max Temperature 107 °F 91 °F 107 °F (1950)
Min Temperature 63 °F 53 °F 44 °F (1975)
Degree Days  
Heating Degree Days 0 0  
Month to date heating degree days 0 0  
Since 1 June heating degree days 5 27  
Since 1 July heating degree days 0 0  
Cooling Degree Days 20 7  
Month to date cooling degree days 20 7  
Year to date cooling degree days 375 218  
Since 1 June cooling degree days 245 150  
Growing Degree Days 34 (Base 50)    
Moisture  
Dew Point 52 °F    
Average Humidity 39    
Maximum Humidity 63    
Minimum Humidity 14    
Precipitation  
Precipitation 0.00 in 0.00 in 0.10 in (1980)
Month to date precipitation 0.00 0.00  
Year to date precipitation 1.46 8.79  
Since 1 July precipitation 0.00  
Sea Level Pressure  
Sea Level Pressure 29.81 in    
Wind  
Wind Speed 6 mph (SW)    
Max Wind Speed 23 mph    
Max Gust Speed 29 mph    
Visibility 10 miles    
Events      
T = Trace of Precipitation, MM = Missing Value Source: NWS Daily Summary

Daily Weather History Graph

Daily Weather History Graph

Search for Another Location

Airport or City:

Trip Planner

Search our weather history database for the weather conditions in past years. The results will help you decide how hot, cold, wet, or windy it might be!

Date:

Astronomy

Jul. 01, 2013 Rise Set
Actual Time 5:50 AM PDT 8:22 PM PDT
Civil Twilight 5:20 AM PDT 8:52 PM PDT
Nautical Twilight 4:43 AM PDT 9:29 PM PDT
Astronomical Twilight 4:02 AM PDT 10:10 PM PDT
Moon 1:15 AM PDT (7/1) 2:49 PM PDT (7/1)
Length of Visible Light 15h 31m
Length of Day
14h 31m
Waning Crescent, 34% of the Moon is Illuminated
Jul 1
Waning Crescent
Jul 8
New
Jul 15
First Quarter
Jul 22
Full
Jul 29
Last Quarter

Hourly Weather History & Observations

Time (PDT) Temp. Heat Index Dew Point Humidity Pressure Visibility Wind Dir Wind Speed Gust Speed Precip Events Conditions
12:53 AM 75.9 °F - 48.9 °F 38% 29.77 in 10.0 mi WNW 8.1 mph - N/A   Clear
1:53 AM 73.0 °F - 48.9 °F 42% 29.78 in 10.0 mi NW 4.6 mph - N/A   Clear
2:53 AM 70.0 °F - 48.9 °F 47% 29.78 in 10.0 mi North 3.5 mph - N/A   Clear
3:53 AM 68.0 °F - 50.0 °F 52% 29.78 in 10.0 mi WNW 4.6 mph - N/A   Clear
4:53 AM 64.9 °F - 51.1 °F 61% 29.78 in 10.0 mi Calm Calm - N/A   Clear
5:53 AM 64.9 °F - 50.0 °F 58% 29.81 in 10.0 mi Calm Calm - N/A   Clear
6:53 AM 66.9 °F - 50.0 °F 54% 29.83 in 10.0 mi Calm Calm - N/A   Clear
7:53 AM 69.1 °F - 52.0 °F 54% 29.84 in 10.0 mi Calm Calm - N/A   Clear
8:53 AM 73.0 °F - 51.1 °F 46% 29.84 in 10.0 mi Calm Calm - N/A   Clear
9:53 AM 82.0 °F - 48.9 °F 31% 29.83 in 10.0 mi Calm Calm - N/A   Clear
10:53 AM 90.0 °F - 46.0 °F 22% 29.82 in 10.0 mi West 4.6 mph - N/A   Clear
11:53 AM 96.1 °F - 42.1 °F 15% 29.81 in 10.0 mi Variable 3.5 mph - N/A   Clear
12:53 PM 100.9 °F - 44.1 °F 14% 29.80 in 10.0 mi Calm Calm - N/A   Clear
1:53 PM 105.1 °F - 46.9 °F 14% 29.78 in 10.0 mi WSW 9.2 mph - N/A   Clear
2:53 PM 105.1 °F - 52.0 °F 17% 29.75 in 10.0 mi SSW 16.1 mph - N/A   Clear
3:53 PM 87.1 °F 86.5 °F 59.0 °F 39% 29.77 in 10.0 mi SSW 20.7 mph 28.8 mph N/A   Clear
4:53 PM 82.0 °F 82.1 °F 59.0 °F 45% 29.78 in 10.0 mi South 20.7 mph - N/A   Clear
5:53 PM 80.1 °F 80.6 °F 57.9 °F 47% 29.80 in 10.0 mi SSW 17.3 mph 24.2 mph N/A   Clear
6:53 PM 79.0 °F - 57.0 °F 47% 29.82 in 10.0 mi South 16.1 mph - N/A   Clear
7:53 PM 77.0 °F - 57.0 °F 50% 29.83 in 10.0 mi South 12.7 mph - N/A   Clear
8:53 PM 75.0 °F - 55.9 °F 51% 29.85 in 10.0 mi South 8.1 mph - N/A   Clear
9:53 PM 73.9 °F - 55.0 °F 52% 29.87 in 10.0 mi SSE 3.5 mph - N/A   Clear
10:53 PM 73.0 °F - 55.9 °F 55% 29.87 in 10.0 mi Calm Calm - N/A   Clear
11:53 PM 70.0 °F - 55.0 °F 59% 29.86 in 10.0 mi Calm Calm - N/A   Clear